When you browse on this site, cookies collect data to enhance your experience and personalize the content and advertising you see.
Visit our Privacy Policy to learn more. By continuing to use the site, you agree to this use of cookies and data.

Météo par heure à Worcester

Ce jour, 13 Août, Jeudi

Heure Température Précipitation Vent Pression Humidité
00:00 +21°C° 1 mm 3 m/s 755 mmHg 90%
01:00 +21°C° 0 mm 3 m/s 755 mmHg 90%
02:00 +20°C° 0 mm 3 m/s 755 mmHg 90%
03:00 +20°C° 0 mm 3 m/s 754 mmHg 90%
04:00 +20°C° 0 mm 3 m/s 754 mmHg 90%
05:00 +19°C° 0 mm 3 m/s 754 mmHg 91%
06:00 +19°C° 0 mm 3 m/s 754 mmHg 92%
07:00 +21°C° 0.2 mm 3 m/s 755 mmHg 88%
08:00 +22°C° 0.2 mm 3 m/s 755 mmHg 84%
09:00 +24°C° 0.2 mm 3 m/s 755 mmHg 80%
10:00 +25°C° 0.6 mm 3 m/s 755 mmHg 78%
11:00 +25°C° 0.6 mm 3 m/s 755 mmHg 77%
12:00 +26°C° 0.6 mm 3 m/s 755 mmHg 76%
13:00 +27°C° 0 mm 3 m/s 754 mmHg 72%
14:00 +28°C° 0 mm 3 m/s 754 mmHg 69%
15:00 +29°C° 0 mm 4 m/s 754 mmHg 66%
16:00 +28°C° 1.6 mm 4 m/s 754 mmHg 71%
17:00 +27°C° 1.6 mm 4 m/s 754 mmHg 75%
18:00 +26°C° 1.6 mm 4 m/s 754 mmHg 79%
19:00 +25°C° 1.2 mm 4 m/s 754 mmHg 82%
20:00 +22°C° 1.2 mm 4 m/s 754 mmHg 85%
21:00 +21°C° 1.2 mm 4 m/s 755 mmHg 88%
22:00 +21°C° 0.5 mm 4 m/s 755 mmHg 89%
23:00 +20°C° 0.5 mm 4 m/s 755 mmHg 90%

Demain, 14 Août, Vendredi

Heure Température Précipitation Vent Pression Humidité
00:00 +19°C° 0.5 mm 4 m/s 754 mmHg 90%
01:00 +19°C° 0.3 mm 3 m/s 754 mmHg 91%
02:00 +19°C° 0.3 mm 3 m/s 754 mmHg 92%
03:00 +18°C° 0.3 mm 3 m/s 754 mmHg 93%
04:00 +18°C° 0.6 mm 3 m/s 755 mmHg 92%
05:00 +18°C° 0.6 mm 3 m/s 755 mmHg 92%
06:00 +18°C° 0.6 mm 3 m/s 755 mmHg 92%
07:00 +19°C° 0.2 mm 3 m/s 755 mmHg 90%
08:00 +19°C° 0.2 mm 4 m/s 755 mmHg 88%
09:00 +19°C° 0.2 mm 4 m/s 755 mmHg 86%
10:00 +20°C° 0.4 mm 3 m/s 755 mmHg 85%
11:00 +21°C° 0.4 mm 3 m/s 755 mmHg 83%
12:00 +21°C° 0.4 mm 3 m/s 755 mmHg 81%
13:00 +23°C° 0.2 mm 2 m/s 755 mmHg 79%
14:00 +24°C° 0.2 mm 2 m/s 755 mmHg 77%
15:00 +24°C° 0.2 mm 2 m/s 755 mmHg 75%
16:00 +24°C° 0 mm 2 m/s 755 mmHg 76%
17:00 +24°C° 0 mm 2 m/s 755 mmHg 78%
18:00 +23°C° 0 mm 2 m/s 755 mmHg 79%
19:00 +23°C° 0.3 mm 2 m/s 756 mmHg 81%
20:00 +21°C° 0.3 mm 3 m/s 756 mmHg 83%
21:00 +20°C° 0.3 mm 3 m/s 757 mmHg 86%
22:00 +19°C° 0.3 mm 3 m/s 757 mmHg 87%
23:00 +19°C° 0.3 mm 3 m/s 756 mmHg 88%

Après-demain, 15 Août, Samedi

Heure Température Précipitation Vent Pression Humidité
00:00 +18°C° 0.3 mm 2 m/s 756 mmHg 89%
01:00 +18°C° 0.1 mm 2 m/s 756 mmHg 90%
02:00 +18°C° 0.1 mm 2 m/s 756 mmHg 90%
03:00 +18°C° 0.1 mm 2 m/s 756 mmHg 91%
04:00 +18°C° 0 mm 2 m/s 756 mmHg 92%
05:00 +18°C° 0 mm 2 m/s 756 mmHg 92%
06:00 +18°C° 0 mm 2 m/s 756 mmHg 93%
07:00 +18°C° 0.1 mm 2 m/s 757 mmHg 92%
08:00 +18°C° 0.1 mm 2 m/s 757 mmHg 92%
09:00 +18°C° 0.1 mm 2 m/s 757 mmHg 91%
10:00 +19°C° 0.1 mm 2 m/s 757 mmHg 90%
11:00 +20°C° 0.1 mm 2 m/s 757 mmHg 88%
12:00 +20°C° 0.1 mm 2 m/s 757 mmHg 86%
13:00 +21°C° 0.4 mm 2 m/s 757 mmHg 83%
14:00 +22°C° 0.4 mm 3 m/s 756 mmHg 80%
15:00 +24°C° 0.4 mm 3 m/s 756 mmHg 77%
16:00 +24°C° 1.2 mm 3 m/s 756 mmHg 79%
17:00 +22°C° 1.2 mm 3 m/s 756 mmHg 81%
18:00 +22°C° 1.2 mm 3 m/s 756 mmHg 83%
19:00 +21°C° 0.6 mm 3 m/s 756 mmHg 86%
20:00 +20°C° 0.6 mm 4 m/s 756 mmHg 89%
21:00 +19°C° 0.6 mm 4 m/s 756 mmHg 92%
22:00 +19°C° 0.2 mm 4 m/s 755 mmHg 93%
23:00 +19°C° 0.2 mm 4 m/s 755 mmHg 94%

16 Août, Dimanche

Heure Température Précipitation Vent Pression Humidité
00:00 +19°C° 0.2 mm 3 m/s 755 mmHg 95%
01:00 +19°C° 0.1 mm 3 m/s 755 mmHg 95%
02:00 +19°C° 0.1 mm 3 m/s 755 mmHg 95%
03:00 +19°C° 0.1 mm 3 m/s 754 mmHg 95%
04:00 +19°C° 0.1 mm 3 m/s 754 mmHg 95%
05:00 +19°C° 0.1 mm 3 m/s 754 mmHg 95%
06:00 +19°C° 0.1 mm 3 m/s 754 mmHg 95%
07:00 +20°C° 0 mm 3 m/s 754 mmHg 93%
08:00 +20°C° 0 mm 3 m/s 754 mmHg 90%
09:00 +21°C° 0 mm 2 m/s 754 mmHg 87%
10:00 +23°C° 0.2 mm 2 m/s 754 mmHg 82%
11:00 +24°C° 0.2 mm 2 m/s 754 mmHg 76%
12:00 +25°C° 0.2 mm 2 m/s 754 mmHg 70%
13:00 +26°C° 0.7 mm 2 m/s 753 mmHg 67%
14:00 +26°C° 0.7 mm 2 m/s 753 mmHg 64%
15:00 +26°C° 0.7 mm 2 m/s 753 mmHg 61%
16:00 +26°C° 1.4 mm 2 m/s 752 mmHg 66%
17:00 +25°C° 1.4 mm 2 m/s 752 mmHg 71%
18:00 +24°C° 1.4 mm 2 m/s 752 mmHg 75%
19:00 +23°C° 0.5 mm 2 m/s 752 mmHg 78%
20:00 +21°C° 0.5 mm 2 m/s 752 mmHg 81%
21:00 +20°C° 0.5 mm 1 m/s 752 mmHg 84%
22:00 +19°C° 0.2 mm 2 m/s 752 mmHg 87%
23:00 +18°C° 0.2 mm 2 m/s 752 mmHg 90%

17 Août, Lundi

Heure Température Précipitation Vent Pression Humidité
00:00 +17°C° 0.2 mm 2 m/s 752 mmHg 93%
01:00 +17°C° 0 mm 2 m/s 751 mmHg 93%
02:00 +17°C° 0 mm 2 m/s 751 mmHg 94%
03:00 +16°C° 0 mm 2 m/s 751 mmHg 94%
04:00 +16°C° 0 mm 2 m/s 751 mmHg 94%
05:00 +16°C° 0 mm 2 m/s 751 mmHg 93%
06:00 +16°C° 0 mm 3 m/s 751 mmHg 93%
07:00 +17°C° 0 mm 3 m/s 751 mmHg 88%
08:00 +18°C° 0 mm 3 m/s 751 mmHg 82%
09:00 +20°C° 0 mm 3 m/s 751 mmHg 77%
10:00 +21°C° 0.2 mm 3 m/s 751 mmHg 74%
11:00 +22°C° 0.2 mm 4 m/s 751 mmHg 70%
12:00 +23°C° 0.2 mm 4 m/s 751 mmHg 67%
13:00 +23°C° 1 mm 4 m/s 750 mmHg 67%
14:00 +22°C° 1 mm 4 m/s 750 mmHg 68%
15:00 +22°C° 1 mm 5 m/s 750 mmHg 69%
16:00 +22°C° 0.3 mm 4 m/s 750 mmHg 72%
17:00 +21°C° 0.3 mm 4 m/s 750 mmHg 75%
18:00 +21°C° 0.3 mm 3 m/s 750 mmHg 78%
19:00 +19°C° 0.2 mm 3 m/s 750 mmHg 83%
20:00 +18°C° 0.2 mm 3 m/s 750 mmHg 87%
21:00 +17°C° 0.2 mm 3 m/s 750 mmHg 92%
22:00 +16°C° 0 mm 3 m/s 751 mmHg 93%
23:00 +16°C° 0 mm 3 m/s 751 mmHg 94%

18 Août, Mardi

Heure Température Précipitation Vent Pression Humidité
00:00 +14°C° 0 mm 3 m/s 751 mmHg 94%
01:00 +14°C° 0 mm 3 m/s 751 mmHg 95%
02:00 +14°C° 0 mm 3 m/s 751 mmHg 95%
03:00 +13°C° 0 mm 3 m/s 751 mmHg 95%
04:00 +14°C° 0 mm 3 m/s 751 mmHg 95%
05:00 +14°C° 0 mm 4 m/s 751 mmHg 94%
06:00 +14°C° 0 mm 4 m/s 751 mmHg 94%
07:00 +15°C° 0 mm 5 m/s 752 mmHg 90%
08:00 +16°C° 0 mm 5 m/s 752 mmHg 86%
09:00 +19°C° 0 mm 6 m/s 752 mmHg 82%
10:00 +19°C° 0.2 mm 6 m/s 752 mmHg 77%
11:00 +20°C° 0.2 mm 6 m/s 752 mmHg 72%
12:00 +21°C° 0.2 mm 5 m/s 753 mmHg 67%
13:00 +21°C° 0 mm 6 m/s 753 mmHg 64%
14:00 +21°C° 0 mm 6 m/s 753 mmHg 61%
15:00 +21°C° 0 mm 6 m/s 753 mmHg 57%
16:00 +20°C° 0 mm 5 m/s 753 mmHg 61%
17:00 +20°C° 0 mm 4 m/s 753 mmHg 64%
18:00 +19°C° 0 mm 3 m/s 753 mmHg 68%
19:00 +17°C° 0 mm 2 m/s 753 mmHg 72%
20:00 +16°C° 0 mm 2 m/s 753 mmHg 77%
21:00 +14°C° 0 mm 2 m/s 753 mmHg 82%
22:00 +14°C° 0 mm 2 m/s 753 mmHg 83%
23:00 +14°C° 0 mm 2 m/s 753 mmHg 84%
Voir plus